DW8163 Weather Reports


time (UTC)temp
C
wind
direction
speed
KPH
gust
KPH
rain 1hr
cm
rain 24hr
cm
rain mn
cm
humidity
%
barometer
mb
20260505041518 9 238 3.2 11.3 0.00 0.00 0.00 89 1012.5
20260505040016 9 217 1.6 11.3 0.00 0.00 0.00 89 1012.5
20260505034518 9 240 3.2 8.0 0.00 0.00 0.00 88 1012.6
20260505033028 10 230 1.6 8.0 0.00 0.00 0.00 87 1012.5
20260505031515 10 212 1.6 11.3 0.00 0.00 0.00 87 1012.5
20260505030014 10 232 4.8 11.3 0.00 0.00 0.00 86 1012.6
20260505024530 10 198 3.2 11.3 0.00 0.00 0.00 86 1012.6
20260505023014 10 226 4.8 14.5 0.00 0.00 0.00 86 1012.6
20260505021528 10 205 4.8 22.5 0.00 0.00 0.00 86 1012.6
20260505020012 10 226 1.6 12.9 0.00 0.00 0.00 85 1012.8
20260505014513 10 198 3.2 20.9 0.00 0.00 0.00 85 1012.7
20260505013011 10 232 4.8 20.9 0.00 0.00 0.00 85 1012.6
20260505011512 10 217 1.6 17.7 0.00 0.00 0.00 84 1012.4
20260505010010 10 245 3.2 11.3 0.00 0.00 0.00 84 1012.2
20260505004521 10 259 1.6 9.7 0.00 0.00 0.00 83 1011.8
20260505003010 10 242 3.2 12.9 0.00 0.00 0.00 82 1011.5
20260505001510 10 231 1.6 19.3 0.00 0.00 0.00 81 1011.4
20260505000010 11 238 6.4 20.9 0.00 0.00 0.00 81 1011.2
20260504234508 11 212 6.4 22.5 0.00 0.00 0.00 80 1011.0
20260504233008 11 128 9.7 24.1 0.00 0.00 0.00 79 1010.9
20260504231507 12 229 6.4 22.5 0.00 0.00 0.00 78 1010.8
20260504230007 12 255 8.0 27.4 0.00 0.00 0.00 76 1010.6
20260504224508 12 233 9.7 30.6 0.00 0.00 0.00 74 1010.6
20260504223006 12 244 8.0 27.4 0.00 0.00 0.00 73 1010.6
20260504221505 13 234 11.3 38.6 0.00 0.00 0.00 71 1010.5
20260504220005 13 254 11.3 30.6 0.00 0.00 0.00 69 1010.6
20260504214504 13 219 9.7 25.7 0.00 0.00 0.00 67 1010.5
20260504213004 15 242 9.7 30.6 0.00 0.00 0.00 63 1010.5
20260504211504 15 198 11.3 27.4 0.00 0.00 0.00 63 1010.6
20260504210003 15 229 8.0 22.5 0.00 0.00 0.00 61 1010.7
20260504204507 15 224 9.7 30.6 0.00 0.00 0.00 62 1010.6
20260504203002 15 216 6.4 19.3 0.00 0.00 0.00 63 1010.5
20260504201501 15 212 8.0 27.4 0.00 0.00 0.00 63 1010.4
20260504200001 16 240 8.0 22.5 0.00 0.00 0.00 62 1010.5
20260504194600 16 251 8.0 30.6 0.00 0.00 0.00 61 1010.5
20260504193102 15 269 4.8 30.6 0.00 0.00 0.00 62 1010.5
20260504191559 16 230 12.9 30.6 0.00 0.00 0.00 58 1010.6
20260504190058 16 197 12.9 33.8 0.00 0.00 0.00 54 1010.7
20260504184600 16 250 6.4 35.4 0.00 0.00 0.00 55 1010.9
20260504183101 17 176 6.4 24.1 0.00 0.00 0.00 54 1011.0
20260504181555 18 208 6.4 25.7 0.00 0.00 0.00 50 1011.0
20260504180054 17 238 8.0 22.5 0.00 0.00 0.00 51 1011.1
20260504174553 18 237 8.0 19.3 0.00 0.00 0.00 52 1011.1
20260504173057 17 234 8.0 20.9 0.00 0.00 0.00 52 1011.2
20260504171551 17 221 9.7 30.6 0.00 0.00 0.00 51 1011.2
20260504081540 3 267 1.6 3.2 0.00 0.00 0.00 90 1012.3
20260504050014 2 271 0.0 0.0 0.00 0.00 0.00 87 1012.0
20260504044506 2 271 0.0 0.0 0.00 0.00 0.00 87 1012.0
20260504043005 2 271 0.0 0.0 0.00 0.00 0.00 85 1012.0